Find Starlink 31872

NORAD ID: 59922 Int'l Des: 2024-106 Owner: SPXS Country: US Constellation: starlink operational
LEOCIRCULAR

リアルタイム位置

3D地球を読み込み中...

Starlink 31872について

説明を読み込み中...

次回通過

Passes for default location (London). Set your location on the main map for personalized predictions.

高度履歴

Loading altitude history...

軌道要素

1 59922U 24106A 26124.43001484 .00002062 00000-0 84450-4 0 9994
2 59922 43.0026 18.0665 0001293 250.2726 109.7986 15.27572988109081
Epoch: May 4, 2026 • Age: 10 hours

現在のステータス

高度 487.1 km
速度 7.63 km/s
衛星直下点 43.15°N, 60.54°W
打ち上げ日 Jun 1, 2024
運用期間 1.9 years
タイプ internet

技術仕様

分類 Payload
質量 730.00 kg
乾燥質量 700.00 kg
総質量 730.00 kg
長さ 0.30 m
直径 4.10 m
スパン 29.00 m
形状 Box + pan
製造者 SPXS
バスタイプ Starlink V2M
フェーズステータス In Orbit
所有者/国 SPXS/US

Most Searched